Time,TemperatureF,DewpointF,PressureIn,WindDirection,WindDirectionDegrees,WindSpeedMPH,WindSpeedGustMPH,Humidity,HourlyPrecipIn,Conditions,Clouds,dailyrainin,SoftwareType,DateUTC
2013-10-03 00:00:00,59.5,59.0,27.61,NE,52,0.0,0.0,98,0.00,,---,0.00,VWS V14.01,2013-10-03 04:00:00,
2013-10-03 00:01:00,59.5,59.0,27.61,NE,52,0.0,0.0,98,0.00,,---,0.00,VWS V14.01,2013-10-03 04:01:00,
2013-10-03 00:06:00,59.5,59.0,27.61,NE,52,0.0,0.0,98,0.00,,---,0.00,VWS V14.01,2013-10-03 04:06:00,
2013-10-03 00:11:00,59.5,59.0,27.61,NE,52,0.0,0.0,98,0.00,,---,0.00,VWS V14.01,2013-10-03 04:11:00,
2013-10-03 00:16:00,59.5,59.0,27.61,NE,52,0.0,0.0,98,0.00,,---,0.00,VWS V14.01,2013-10-03 04:16:00,
2013-10-03 00:21:00,59.5,59.0,27.61,NE,52,0.0,0.0,98,0.00,,---,0.00,VWS V14.01,2013-10-03 04:21:00,
2013-10-03 00:26:00,59.5,59.0,27.61,NE,52,0.0,0.0,98,0.00,,---,0.00,VWS V14.01,2013-10-03 04:26:00,
2013-10-03 00:31:00,59.5,59.0,27.61,NE,52,0.0,0.0,98,0.00,,---,0.00,VWS V14.01,2013-10-03 04:31:00,
2013-10-03 00:36:00,59.5,59.0,27.61,NE,52,0.0,0.0,98,0.00,,---,0.00,VWS V14.01,2013-10-03 04:36:00,
2013-10-03 00:41:00,59.4,58.8,27.61,NE,52,0.0,0.0,98,0.00,,---,0.00,VWS V14.01,2013-10-03 04:41:00,
2013-10-03 00:46:00,59.4,58.8,27.61,NE,52,0.0,0.0,98,0.00,,---,0.00,VWS V14.01,2013-10-03 04:46:00,
2013-10-03 00:51:00,59.4,58.8,27.61,NE,52,0.0,0.0,98,0.00,,---,0.00,VWS V14.01,2013-10-03 04:51:00,
2013-10-03 00:56:00,59.4,58.8,27.61,NE,52,0.0,0.0,98,0.00,,---,0.00,VWS V14.01,2013-10-03 04:56:00,
2013-10-03 01:01:00,59.4,58.8,27.61,NE,52,0.0,0.0,98,0.00,,---,0.00,VWS V14.01,2013-10-03 05:01:00,
2013-10-03 01:06:00,59.4,58.8,27.61,NE,52,0.0,0.0,98,0.00,,---,0.00,VWS V14.01,2013-10-03 05:06:00,
2013-10-03 01:11:00,59.4,58.8,27.61,NE,52,0.0,0.0,98,0.00,,---,0.00,VWS V14.01,2013-10-03 05:11:00,
2013-10-03 01:16:00,59.4,58.8,27.61,NE,52,0.0,0.0,98,0.00,,---,0.00,VWS V14.01,2013-10-03 05:16:00,
2013-10-03 01:21:00,59.4,58.8,27.61,NE,52,0.0,0.0,98,0.00,,---,0.00,VWS V14.01,2013-10-03 05:21:00,
2013-10-03 01:26:00,59.5,59.0,27.61,NE,52,0.0,0.0,98,0.00,,---,0.00,VWS V14.01,2013-10-03 05:26:00,
2013-10-03 01:31:00,59.5,59.0,27.61,NE,52,0.0,0.0,98,0.00,,---,0.00,VWS V14.01,2013-10-03 05:31:00,
2013-10-03 01:36:00,59.5,59.0,27.61,NE,52,0.0,0.0,98,0.00,,---,0.00,VWS V14.01,2013-10-03 05:36:00,
2013-10-03 01:41:00,59.5,59.0,27.61,NE,52,0.0,0.0,98,0.00,,---,0.00,VWS V14.01,2013-10-03 05:41:00,
2013-10-03 01:46:00,59.5,59.0,27.61,NE,52,0.0,0.0,98,0.00,,---,0.00,VWS V14.01,2013-10-03 05:46:00,
2013-10-03 01:51:00,59.5,59.0,27.61,NE,52,0.0,0.0,98,0.00,,---,0.00,VWS V14.01,2013-10-03 05:51:00,
2013-10-03 01:56:00,59.5,59.0,27.61,NE,52,0.0,0.0,98,0.00,,---,0.00,VWS V14.01,2013-10-03 05:56:00,
2013-10-03 02:01:00,59.5,59.0,27.61,NE,52,0.0,0.0,98,0.00,,---,0.00,VWS V14.01,2013-10-03 06:01:00,
2013-10-03 02:06:00,59.5,59.0,27.61,NE,52,0.0,0.0,98,0.00,,---,0.00,VWS V14.01,2013-10-03 06:06:00,
2013-10-03 02:11:00,59.5,59.0,27.61,NE,52,0.0,0.0,98,0.00,,---,0.00,VWS V14.01,2013-10-03 06:11:00,
2013-10-03 02:16:00,59.4,58.8,27.61,NE,52,0.0,0.0,98,0.00,,---,0.00,VWS V14.01,2013-10-03 06:16:00,
2013-10-03 02:21:00,59.4,58.8,27.61,NE,52,0.0,0.0,98,0.00,,---,0.00,VWS V14.01,2013-10-03 06:21:00,
2013-10-03 02:26:00,59.2,58.6,27.61,NE,52,0.0,0.0,98,0.00,,---,0.00,VWS V14.01,2013-10-03 06:26:00,
2013-10-03 02:31:00,59.2,58.6,27.61,NE,52,0.0,0.0,98,0.00,,---,0.00,VWS V14.01,2013-10-03 06:31:00,
2013-10-03 02:36:00,59.0,58.4,27.61,NE,52,0.0,0.0,98,0.00,,---,0.00,VWS V14.01,2013-10-03 06:36:00,
2013-10-03 02:41:00,59.0,58.4,27.61,NE,52,0.0,0.0,98,0.00,,---,0.00,VWS V14.01,2013-10-03 06:41:00,
2013-10-03 02:46:00,59.0,58.4,27.61,NE,52,0.0,0.0,98,0.00,,---,0.00,VWS V14.01,2013-10-03 06:46:00,
2013-10-03 02:51:00,58.8,58.3,27.61,NE,52,0.0,0.0,98,0.00,,---,0.00,VWS V14.01,2013-10-03 06:51:00,
2013-10-03 02:56:00,58.8,58.3,27.61,NE,52,0.0,0.0,98,0.00,,---,0.00,VWS V14.01,2013-10-03 06:56:00,
2013-10-03 03:01:00,59.0,58.4,27.61,NE,52,0.0,0.0,98,0.00,,---,0.00,VWS V14.01,2013-10-03 07:01:00,
2013-10-03 03:06:00,59.2,58.6,27.61,NE,52,0.0,0.0,98,0.00,,---,0.00,VWS V14.01,2013-10-03 07:06:00,
2013-10-03 03:11:00,59.0,58.4,27.61,NE,52,0.0,0.0,98,0.00,,---,0.00,VWS V14.01,2013-10-03 07:11:00,
2013-10-03 03:16:00,59.2,58.6,27.58,NE,52,0.0,0.0,98,0.00,,---,0.00,VWS V14.01,2013-10-03 07:16:00,
2013-10-03 03:21:00,59.2,58.6,27.58,NE,52,0.0,0.0,98,0.00,,---,0.00,VWS V14.01,2013-10-03 07:21:00,
2013-10-03 03:26:00,59.2,58.6,27.58,NE,52,0.0,0.0,98,0.00,,---,0.00,VWS V14.01,2013-10-03 07:26:00,
2013-10-03 03:31:00,59.2,58.6,27.58,NE,52,0.0,0.0,98,0.00,,---,0.00,VWS V14.01,2013-10-03 07:31:00,
2013-10-03 03:36:00,59.0,58.4,27.58,NE,52,0.0,0.0,98,0.00,,---,0.00,VWS V14.01,2013-10-03 07:36:00,
2013-10-03 03:41:00,59.0,58.4,27.58,NE,52,0.0,0.0,98,0.00,,---,0.00,VWS V14.01,2013-10-03 07:41:00,
2013-10-03 03:46:00,59.0,58.4,27.58,NE,52,0.0,0.0,98,0.00,,---,0.00,VWS V14.01,2013-10-03 07:46:00,
2013-10-03 03:51:00,58.8,58.3,27.58,NE,52,0.0,0.0,98,0.00,,---,0.00,VWS V14.01,2013-10-03 07:51:00,
2013-10-03 03:56:00,58.8,58.3,27.58,NE,52,0.0,0.0,98,0.00,,---,0.00,VWS V14.01,2013-10-03 07:56:00,
2013-10-03 04:01:00,58.6,58.1,27.58,NE,52,0.0,0.0,98,0.00,,---,0.00,VWS V14.01,2013-10-03 08:01:00,
2013-10-03 04:06:00,58.6,58.1,27.58,NE,52,0.0,0.0,98,0.00,,---,0.00,VWS V14.01,2013-10-03 08:06:00,
2013-10-03 04:11:00,58.6,58.1,27.58,NE,52,0.0,0.0,98,0.00,,---,0.00,VWS V14.01,2013-10-03 08:11:00,
2013-10-03 04:16:00,58.5,57.9,27.58,NE,52,0.0,0.0,98,0.00,,---,0.00,VWS V14.01,2013-10-03 08:16:00,
2013-10-03 04:21:00,58.5,57.9,27.58,NE,52,0.0,0.0,98,0.00,,---,0.00,VWS V14.01,2013-10-03 08:21:00,
2013-10-03 04:26:00,58.3,57.7,27.58,NE,52,0.0,0.0,98,0.00,,---,0.00,VWS V14.01,2013-10-03 08:26:00,
2013-10-03 04:31:00,58.1,57.5,27.58,NE,52,0.0,0.0,98,0.00,,---,0.00,VWS V14.01,2013-10-03 08:31:00,
2013-10-03 04:36:00,57.9,57.4,27.58,NE,52,0.0,0.0,98,0.00,,---,0.00,VWS V14.01,2013-10-03 08:36:00,
2013-10-03 04:41:00,57.9,57.4,27.58,NE,52,0.0,0.0,98,0.00,,---,0.00,VWS V14.01,2013-10-03 08:41:00,
2013-10-03 04:46:00,57.9,57.4,27.58,NE,52,0.0,0.0,98,0.00,,---,0.00,VWS V14.01,2013-10-03 08:46:00,
2013-10-03 04:51:00,57.9,57.4,27.58,NE,52,0.0,0.0,98,0.00,,---,0.00,VWS V14.01,2013-10-03 08:51:00,
2013-10-03 04:56:00,57.9,57.4,27.58,NE,52,0.0,0.0,98,0.00,,---,0.00,VWS V14.01,2013-10-03 08:56:00,
2013-10-03 05:01:00,57.9,57.4,27.58,NE,52,0.0,0.0,98,0.00,,---,0.00,VWS V14.01,2013-10-03 09:01:00,
2013-10-03 05:06:00,57.9,57.4,27.58,NE,52,0.0,0.0,98,0.00,,---,0.00,VWS V14.01,2013-10-03 09:06:00,
2013-10-03 05:11:00,57.7,57.2,27.58,NE,52,0.0,0.0,98,0.00,,---,0.00,VWS V14.01,2013-10-03 09:11:00,
2013-10-03 05:16:00,57.7,57.2,27.58,NE,52,0.0,0.0,98,0.00,,---,0.00,VWS V14.01,2013-10-03 09:16:00,
2013-10-03 05:21:00,57.7,57.2,27.58,NE,52,0.0,0.0,98,0.00,,---,0.00,VWS V14.01,2013-10-03 09:21:00,
2013-10-03 05:26:00,57.7,57.2,27.58,NE,52,0.0,0.0,98,0.00,,---,0.00,VWS V14.01,2013-10-03 09:26:00,
2013-10-03 05:31:00,57.7,57.2,27.58,NE,52,0.0,0.0,98,0.00,,---,0.00,VWS V14.01,2013-10-03 09:31:00,
2013-10-03 05:36:00,57.9,57.4,27.58,NE,52,0.0,0.0,98,0.00,,---,0.00,VWS V14.01,2013-10-03 09:36:00,
2013-10-03 05:41:00,57.9,57.4,27.58,NE,52,0.0,0.0,98,0.00,,---,0.00,VWS V14.01,2013-10-03 09:41:00,
2013-10-03 05:46:00,57.9,57.4,27.58,NE,52,0.0,0.0,98,0.00,,---,0.00,VWS V14.01,2013-10-03 09:46:00,
2013-10-03 05:51:00,57.9,57.4,27.58,NE,52,0.0,0.0,98,0.00,,---,0.00,VWS V14.01,2013-10-03 09:51:00,
2013-10-03 05:56:00,57.9,57.4,27.58,NE,52,0.0,0.0,98,0.00,,---,0.00,VWS V14.01,2013-10-03 09:56:00,
2013-10-03 06:01:00,57.9,57.4,27.61,NE,52,0.0,0.0,98,0.00,,---,0.00,VWS V14.01,2013-10-03 10:01:00,
2013-10-03 06:06:00,57.9,57.4,27.61,NE,52,0.0,0.0,98,0.00,,---,0.00,VWS V14.01,2013-10-03 10:06:00,
2013-10-03 06:11:00,58.1,57.5,27.61,NE,52,0.0,0.0,98,0.00,,---,0.00,VWS V14.01,2013-10-03 10:11:00,
2013-10-03 06:16:00,58.1,57.5,27.61,NE,52,0.0,0.0,98,0.00,,---,0.00,VWS V14.01,2013-10-03 10:16:00,
2013-10-03 06:21:00,57.9,57.4,27.61,NE,52,0.0,0.0,98,0.00,,---,0.00,VWS V14.01,2013-10-03 10:21:00,
2013-10-03 06:26:00,57.9,57.4,27.61,NE,52,0.0,0.0,98,0.00,,---,0.00,VWS V14.01,2013-10-03 10:26:00,
2013-10-03 06:31:00,57.7,57.2,27.61,NE,52,0.0,0.0,98,0.00,,---,0.00,VWS V14.01,2013-10-03 10:31:00,
2013-10-03 06:36:00,57.6,57.0,27.61,NE,52,0.0,0.0,98,0.00,,---,0.00,VWS V14.01,2013-10-03 10:36:00,
2013-10-03 06:41:00,57.6,57.0,27.61,NE,52,0.0,0.0,98,0.00,,---,0.00,VWS V14.01,2013-10-03 10:41:00,
2013-10-03 06:46:00,57.4,56.8,27.61,NE,52,0.0,0.0,98,0.00,,---,0.00,VWS V14.01,2013-10-03 10:46:00,
2013-10-03 06:51:00,57.4,56.8,27.61,NE,52,0.0,0.0,98,0.00,,---,0.00,VWS V14.01,2013-10-03 10:51:00,
2013-10-03 06:56:00,57.4,56.8,27.61,NE,52,0.0,0.0,98,0.00,,---,0.00,VWS V14.01,2013-10-03 10:56:00,
2013-10-03 07:01:00,57.4,56.8,27.61,NE,52,0.0,0.0,98,0.00,,---,0.00,VWS V14.01,2013-10-03 11:01:00,
2013-10-03 07:06:00,57.4,56.8,27.61,NE,52,0.0,0.0,98,0.00,,---,0.00,VWS V14.01,2013-10-03 11:06:00,
2013-10-03 07:11:00,57.4,56.8,27.61,NE,52,0.0,0.0,98,0.00,,---,0.00,VWS V14.01,2013-10-03 11:11:00,
2013-10-03 07:16:00,57.4,56.8,27.61,NE,52,0.0,0.0,98,0.00,,---,0.00,VWS V14.01,2013-10-03 11:16:00,
2013-10-03 07:21:00,57.4,56.8,27.61,NE,52,0.0,0.0,98,0.00,,---,0.00,VWS V14.01,2013-10-03 11:21:00,
2013-10-03 07:26:00,57.4,56.8,27.61,NE,52,0.0,0.0,98,0.00,,---,0.00,VWS V14.01,2013-10-03 11:26:00,
2013-10-03 07:31:00,57.2,56.6,27.61,NE,52,0.0,0.0,98,0.00,,---,0.00,VWS V14.01,2013-10-03 11:31:00,
2013-10-03 07:36:00,57.0,56.5,27.61,NE,52,0.0,0.0,98,0.00,,---,0.00,VWS V14.01,2013-10-03 11:36:00,
2013-10-03 07:41:00,57.0,56.5,27.61,NE,52,0.0,0.0,98,0.00,,---,0.00,VWS V14.01,2013-10-03 11:41:00,
2013-10-03 07:46:00,57.2,56.6,27.61,NE,52,0.0,0.0,98,0.00,,---,0.00,VWS V14.01,2013-10-03 11:46:00,
2013-10-03 07:51:00,57.4,56.8,27.61,NE,52,0.0,0.0,98,0.00,,---,0.00,VWS V14.01,2013-10-03 11:51:00,
2013-10-03 07:56:00,57.6,57.0,27.61,NE,52,0.0,0.0,98,0.00,,---,0.00,VWS V14.01,2013-10-03 11:56:00,
2013-10-03 08:01:00,57.7,57.2,27.61,NE,52,0.0,0.0,98,0.00,,---,0.00,VWS V14.01,2013-10-03 12:01:00,
2013-10-03 08:06:00,57.9,57.4,27.61,NE,52,0.0,0.0,98,0.00,,---,0.00,VWS V14.01,2013-10-03 12:06:00,
2013-10-03 08:11:00,58.1,57.5,27.61,NE,52,0.0,0.0,98,0.00,,---,0.00,VWS V14.01,2013-10-03 12:11:00,
2013-10-03 08:16:00,58.3,57.7,27.61,NE,52,0.0,0.0,98,0.00,,---,0.00,VWS V14.01,2013-10-03 12:16:00,
2013-10-03 08:21:00,58.5,57.9,27.61,NE,52,0.0,0.0,98,0.00,,---,0.00,VWS V14.01,2013-10-03 12:21:00,
2013-10-03 08:26:00,58.6,58.1,27.61,NE,52,0.0,0.0,98,0.00,,---,0.00,VWS V14.01,2013-10-03 12:26:00,
2013-10-03 08:31:00,58.8,58.3,27.61,NE,52,0.0,0.0,98,0.00,,---,0.00,VWS V14.01,2013-10-03 12:31:00,
2013-10-03 08:36:00,59.2,58.6,27.61,NE,52,0.0,0.0,98,0.00,,---,0.00,VWS V14.01,2013-10-03 12:36:00,
2013-10-03 08:41:00,59.2,58.6,27.61,NE,52,0.0,0.0,98,0.00,,---,0.00,VWS V14.01,2013-10-03 12:41:00,
2013-10-03 08:46:00,59.5,59.0,27.61,NE,52,0.0,0.0,98,0.00,,---,0.00,VWS V14.01,2013-10-03 12:46:00,
2013-10-03 08:51:00,59.9,59.3,27.61,NE,52,0.0,0.0,98,0.00,,---,0.00,VWS V14.01,2013-10-03 12:51:00,
2013-10-03 08:56:00,60.1,59.5,27.61,NE,52,0.0,0.0,98,0.00,,---,0.00,VWS V14.01,2013-10-03 12:56:00,
2013-10-03 09:01:00,60.4,59.9,27.61,NE,52,0.0,0.0,98,0.00,,---,0.00,VWS V14.01,2013-10-03 13:01:00,
2013-10-03 09:06:00,60.6,60.1,27.61,NE,52,0.0,0.0,98,0.00,,---,0.00,VWS V14.01,2013-10-03 13:06:00,
2013-10-03 09:11:00,61.0,60.4,27.61,NE,52,0.0,0.0,98,0.00,,---,0.00,VWS V14.01,2013-10-03 13:11:00,
2013-10-03 09:16:00,61.0,60.4,27.61,NE,52,0.0,0.0,98,0.00,,---,0.00,VWS V14.01,2013-10-03 13:16:00,
2013-10-03 09:21:00,61.2,60.6,27.61,NE,52,0.0,0.0,98,0.00,,---,0.00,VWS V14.01,2013-10-03 13:21:00,
2013-10-03 09:26:00,61.5,61.0,27.61,NE,52,0.0,0.0,98,0.00,,---,0.00,VWS V14.01,2013-10-03 13:26:00,
2013-10-03 09:31:00,61.9,61.3,27.64,NE,52,0.0,0.0,98,0.00,,---,0.00,VWS V14.01,2013-10-03 13:31:00,
2013-10-03 09:36:00,62.6,62.0,27.64,NE,52,0.0,0.0,98,0.00,,---,0.00,VWS V14.01,2013-10-03 13:36:00,
2013-10-03 09:41:00,63.0,62.4,27.64,NE,52,0.0,0.0,98,0.00,,---,0.00,VWS V14.01,2013-10-03 13:41:00,
2013-10-03 09:46:00,63.1,62.6,27.64,NE,52,0.0,0.0,98,0.00,,---,0.00,VWS V14.01,2013-10-03 13:46:00,
2013-10-03 09:51:00,63.9,63.3,27.64,NE,52,0.0,0.0,98,0.00,,---,0.00,VWS V14.01,2013-10-03 13:51:00,
2013-10-03 09:56:00,64.9,64.4,27.64,ESE,103,2.2,2.2,98,0.00,,---,0.00,VWS V14.01,2013-10-03 13:56:00,
2013-10-03 10:01:00,65.7,65.1,27.64,ESE,103,0.0,2.2,98,0.00,,---,0.00,VWS V14.01,2013-10-03 14:01:00,
2013-10-03 10:06:00,66.4,65.8,27.64,ESE,103,0.0,0.0,98,0.00,,---,0.00,VWS V14.01,2013-10-03 14:06:00,
2013-10-03 10:11:00,67.1,66.5,27.64,ESE,103,0.0,0.0,98,0.00,,---,0.00,VWS V14.01,2013-10-03 14:11:00,
2013-10-03 10:16:00,67.5,66.9,27.64,ESE,103,2.2,2.7,98,0.00,,---,0.00,VWS V14.01,2013-10-03 14:16:00,
2013-10-03 10:21:00,68.2,67.6,27.64,ESE,103,0.0,0.0,98,0.00,,---,0.00,VWS V14.01,2013-10-03 14:21:00,
2013-10-03 10:26:00,68.7,68.1,27.64,ESE,103,2.7,2.7,98,0.00,,---,0.00,VWS V14.01,2013-10-03 14:26:00,
2013-10-03 10:31:00,68.9,68.3,27.64,ESE,103,0.0,0.0,98,0.00,,---,0.00,VWS V14.01,2013-10-03 14:31:00,
2013-10-03 10:36:00,69.3,68.1,27.64,ESE,103,0.0,0.0,96,0.00,,---,0.00,VWS V14.01,2013-10-03 14:36:00,
2013-10-03 10:41:00,69.3,67.2,27.64,ESE,103,0.0,3.1,93,0.00,,---,0.00,VWS V14.01,2013-10-03 14:41:00,
2013-10-03 10:46:00,69.4,66.7,27.64,ESE,103,0.0,0.0,91,0.00,,---,0.00,VWS V14.01,2013-10-03 14:46:00,
2013-10-03 10:51:00,69.8,66.7,27.64,ESE,103,0.0,2.2,90,0.00,,---,0.00,VWS V14.01,2013-10-03 14:51:00,
2013-10-03 10:56:00,70.2,66.8,27.64,ESE,103,0.0,2.2,89,0.00,,---,0.00,VWS V14.01,2013-10-03 14:56:00,
2013-10-03 11:01:00,70.3,66.6,27.64,ESE,103,0.0,2.2,88,0.00,,---,0.00,VWS V14.01,2013-10-03 15:01:00,
2013-10-03 11:06:00,70.3,66.0,27.64,ESE,103,2.7,2.7,86,0.00,,---,0.00,VWS V14.01,2013-10-03 15:06:00,
2013-10-03 11:11:00,70.9,65.8,27.64,ESE,103,2.2,2.2,84,0.00,,---,0.00,VWS V14.01,2013-10-03 15:11:00,
2013-10-03 11:16:00,72.0,66.2,27.64,SSE,166,2.2,2.2,82,0.00,,---,0.00,VWS V14.01,2013-10-03 15:16:00,
2013-10-03 11:21:00,72.5,66.0,27.64,SSE,165,2.2,2.7,80,0.00,,---,0.00,VWS V14.01,2013-10-03 15:21:00,
2013-10-03 11:26:00,72.5,65.6,27.64,SSE,165,0.0,0.0,79,0.00,,---,0.00,VWS V14.01,2013-10-03 15:26:00,
2013-10-03 11:31:00,72.5,65.6,27.64,SSE,165,2.2,2.2,79,0.00,,---,0.00,VWS V14.01,2013-10-03 15:31:00,
2013-10-03 11:36:00,72.7,65.4,27.64,East,95,0.0,0.0,78,0.00,,---,0.00,VWS V14.01,2013-10-03 15:36:00,
2013-10-03 11:41:00,73.0,65.4,27.64,East,98,2.2,3.1,77,0.00,,---,0.00,VWS V14.01,2013-10-03 15:41:00,
2013-10-03 11:46:00,73.8,65.3,27.61,East,101,3.6,4.0,75,0.00,,---,0.00,VWS V14.01,2013-10-03 15:46:00,
2013-10-03 11:51:00,73.8,65.0,27.61,East,101,0.0,0.0,74,0.00,,---,0.00,VWS V14.01,2013-10-03 15:51:00,
2013-10-03 11:56:00,73.2,64.8,27.61,East,101,0.0,0.0,75,0.00,,---,0.00,VWS V14.01,2013-10-03 15:56:00,
2013-10-03 12:01:00,73.0,64.7,27.61,East,101,0.0,0.0,75,0.00,,---,0.00,VWS V14.01,2013-10-03 16:01:00,
2013-10-03 12:06:00,73.0,64.7,27.61,East,101,0.0,0.0,75,0.00,,---,0.00,VWS V14.01,2013-10-03 16:06:00,
2013-10-03 12:11:00,74.1,65.3,27.61,East,101,2.7,3.1,74,0.00,,---,0.00,VWS V14.01,2013-10-03 16:11:00,
2013-10-03 12:16:00,74.3,65.1,27.61,East,96,3.1,3.6,73,0.00,,---,0.00,VWS V14.01,2013-10-03 16:16:00,
2013-10-03 12:21:00,74.5,64.5,27.61,East,96,2.2,3.6,71,0.00,,---,0.00,VWS V14.01,2013-10-03 16:21:00,
2013-10-03 12:26:00,74.7,64.2,27.61,East,93,5.8,5.8,70,0.00,,---,0.00,VWS V14.01,2013-10-03 16:26:00,
2013-10-03 12:31:00,75.0,65.4,27.61,ESE,109,2.2,2.2,72,0.00,,---,0.00,VWS V14.01,2013-10-03 16:31:00,
2013-10-03 12:36:00,75.6,65.1,27.61,SSE,148,2.7,3.1,70,0.00,,---,0.00,VWS V14.01,2013-10-03 16:36:00,
2013-10-03 12:41:00,75.7,64.9,27.61,SE,145,2.7,2.7,69,0.00,,---,0.00,VWS V14.01,2013-10-03 16:41:00,
2013-10-03 12:46:00,76.1,64.4,27.61,SE,145,0.0,2.2,67,0.00,,---,0.00,VWS V14.01,2013-10-03 16:46:00,
2013-10-03 12:51:00,76.5,64.3,27.61,SSW,213,2.7,3.6,66,0.00,,---,0.00,VWS V14.01,2013-10-03 16:51:00,
2013-10-03 12:56:00,76.3,63.2,27.61,SSW,213,0.0,2.2,64,0.00,,---,0.00,VWS V14.01,2013-10-03 16:56:00,
2013-10-03 13:01:00,76.1,62.6,27.61,SSW,206,0.0,0.0,63,0.00,,---,0.00,VWS V14.01,2013-10-03 17:01:00,
2013-10-03 13:06:00,76.6,63.1,27.61,SE,129,2.2,2.2,63,0.00,,---,0.00,VWS V14.01,2013-10-03 17:06:00,
2013-10-03 13:11:00,76.3,64.1,27.61,SE,145,0.0,0.0,66,0.00,,---,0.00,VWS V14.01,2013-10-03 17:11:00,
2013-10-03 13:16:00,75.7,63.2,27.61,WSW,250,0.0,0.0,65,0.00,,---,0.00,VWS V14.01,2013-10-03 17:16:00,
2013-10-03 13:21:00,75.0,63.3,27.61,WSW,250,0.0,0.0,67,0.00,,---,0.00,VWS V14.01,2013-10-03 17:21:00,
2013-10-03 13:26:00,74.8,63.6,27.61,WSW,250,0.0,0.0,68,0.00,,---,0.00,VWS V14.01,2013-10-03 17:26:00,
2013-10-03 13:31:00,75.0,64.2,27.61,WSW,248,2.2,2.2,69,0.00,,---,0.00,VWS V14.01,2013-10-03 17:31:00,
2013-10-03 13:36:00,74.8,64.0,27.61,WSW,248,2.7,2.7,69,0.00,,---,0.00,VWS V14.01,2013-10-03 17:36:00,
2013-10-03 13:41:00,74.7,63.8,27.61,WSW,248,0.0,0.0,69,0.00,,---,0.00,VWS V14.01,2013-10-03 17:41:00,
2013-10-03 13:46:00,74.8,63.6,27.61,WSW,248,0.0,0.0,68,0.00,,---,0.00,VWS V14.01,2013-10-03 17:46:00,
2013-10-03 13:51:00,75.2,64.3,27.61,WSW,248,0.0,0.0,69,0.00,,---,0.00,VWS V14.01,2013-10-03 17:51:00,
2013-10-03 13:56:00,75.0,64.2,27.61,WSW,248,0.0,0.0,69,0.00,,---,0.00,VWS V14.01,2013-10-03 17:56:00,
2013-10-03 14:01:00,75.2,63.9,27.58,WSW,248,2.2,2.2,68,0.00,,---,0.00,VWS V14.01,2013-10-03 18:01:00,
2013-10-03 14:06:00,76.3,64.5,27.58,WSW,248,2.7,2.7,67,0.00,,---,0.00,VWS V14.01,2013-10-03 18:06:00,
2013-10-03 14:11:00,77.7,65.5,27.58,WSW,248,2.7,2.7,66,0.00,,---,0.00,VWS V14.01,2013-10-03 18:11:00,
2013-10-03 14:16:00,78.6,65.0,27.58,WSW,243,3.1,3.6,63,0.00,,---,0.00,VWS V14.01,2013-10-03 18:16:00,
2013-10-03 14:21:00,78.3,64.6,27.58,ESE,116,0.0,0.0,63,0.00,,---,0.00,VWS V14.01,2013-10-03 18:21:00,
2013-10-03 14:26:00,78.4,63.9,27.58,ESE,108,2.7,4.0,61,0.00,,---,0.00,VWS V14.01,2013-10-03 18:26:00,
2013-10-03 14:31:00,77.7,61.3,27.58,ESE,109,2.2,2.2,57,0.00,,---,0.00,VWS V14.01,2013-10-03 18:31:00,
2013-10-03 14:36:00,77.4,62.4,27.58,ESE,108,0.0,0.0,60,0.00,,---,0.00,VWS V14.01,2013-10-03 18:36:00,
2013-10-03 14:41:00,76.8,62.8,27.58,ESE,108,0.0,0.0,62,0.00,,---,0.00,VWS V14.01,2013-10-03 18:41:00,
2013-10-03 14:46:00,76.3,62.8,27.58,ESE,108,0.0,0.0,63,0.00,,---,0.00,VWS V14.01,2013-10-03 18:46:00,
2013-10-03 14:51:00,76.1,63.0,27.58,ESE,109,0.0,0.0,64,0.00,,---,0.00,VWS V14.01,2013-10-03 18:51:00,
2013-10-03 14:56:00,75.6,63.4,27.58,ESE,108,0.0,0.0,66,0.00,,---,0.00,VWS V14.01,2013-10-03 18:56:00,
2013-10-03 15:01:00,75.0,63.3,27.58,ESE,108,0.0,0.0,67,0.00,,---,0.00,VWS V14.01,2013-10-03 19:01:00,
2013-10-03 15:06:00,74.8,63.6,27.58,ESE,109,0.0,0.0,68,0.00,,---,0.00,VWS V14.01,2013-10-03 19:06:00,
2013-10-03 15:11:00,74.5,63.7,27.58,ESE,109,0.0,0.0,69,0.00,,---,0.00,VWS V14.01,2013-10-03 19:11:00,
2013-10-03 15:16:00,74.3,63.9,27.58,ESE,108,0.0,0.0,70,0.00,,---,0.00,VWS V14.01,2013-10-03 19:16:00,
2013-10-03 15:21:00,74.3,63.9,27.58,ESE,108,0.0,0.0,70,0.00,,---,0.00,VWS V14.01,2013-10-03 19:21:00,
2013-10-03 15:26:00,74.5,64.5,27.58,ESE,109,0.0,0.0,71,0.00,,---,0.00,VWS V14.01,2013-10-03 19:26:00,
2013-10-03 15:31:00,74.3,64.3,27.58,ESE,108,0.0,0.0,71,0.00,,---,0.00,VWS V14.01,2013-10-03 19:31:00,
2013-10-03 15:36:00,73.9,63.5,27.58,ESE,108,0.0,0.0,70,0.00,,---,0.00,VWS V14.01,2013-10-03 19:36:00,
2013-10-03 15:41:00,73.6,63.2,27.58,ESE,108,0.0,0.0,70,0.00,,---,0.00,VWS V14.01,2013-10-03 19:41:00,
2013-10-03 15:46:00,73.4,63.4,27.58,ESE,108,0.0,0.0,71,0.00,,---,0.00,VWS V14.01,2013-10-03 19:46:00,
2013-10-03 15:51:00,73.4,64.2,27.58,ESE,108,0.0,0.0,73,0.00,,---,0.00,VWS V14.01,2013-10-03 19:51:00,
2013-10-03 15:56:00,73.2,64.8,27.58,ESE,109,0.0,0.0,75,0.00,,---,0.00,VWS V14.01,2013-10-03 19:56:00,
2013-10-03 16:01:00,73.2,65.2,27.58,ESE,109,0.0,0.0,76,0.00,,---,0.00,VWS V14.01,2013-10-03 20:01:00,
2013-10-03 16:06:00,73.2,65.2,27.58,ESE,109,0.0,0.0,76,0.00,,---,0.00,VWS V14.01,2013-10-03 20:06:00,
2013-10-03 16:11:00,73.2,65.2,27.58,ESE,109,0.0,0.0,76,0.00,,---,0.00,VWS V14.01,2013-10-03 20:11:00,
2013-10-03 16:16:00,73.2,65.6,27.58,ESE,109,0.0,0.0,77,0.00,,---,0.00,VWS V14.01,2013-10-03 20:16:00,
2013-10-03 16:21:00,73.6,65.6,27.58,ESE,109,0.0,0.0,76,0.00,,---,0.00,VWS V14.01,2013-10-03 20:21:00,
2013-10-03 16:26:00,73.8,65.7,27.58,ESE,109,0.0,0.0,76,0.00,,---,0.00,VWS V14.01,2013-10-03 20:26:00,
2013-10-03 16:31:00,73.9,65.5,27.58,ESE,109,0.0,0.0,75,0.00,,---,0.00,VWS V14.01,2013-10-03 20:31:00,
2013-10-03 16:36:00,74.1,65.3,27.58,ESE,109,0.0,0.0,74,0.00,,---,0.00,VWS V14.01,2013-10-03 20:36:00,
2013-10-03 16:41:00,74.1,64.5,27.58,SSE,149,2.2,2.2,72,0.00,,---,0.00,VWS V14.01,2013-10-03 20:41:00,
2013-10-03 16:46:00,73.8,64.6,27.58,SW,216,2.2,3.1,73,0.00,,---,0.00,VWS V14.01,2013-10-03 20:46:00,
2013-10-03 16:51:00,73.8,64.6,27.58,South,178,2.2,2.2,73,0.00,,---,0.00,VWS V14.01,2013-10-03 20:51:00,
2013-10-03 16:56:00,73.8,63.8,27.58,NE,41,2.7,2.7,71,0.00,,---,0.00,VWS V14.01,2013-10-03 20:56:00,
2013-10-03 17:01:00,73.6,63.6,27.58,SSW,197,0.0,0.0,71,0.00,,---,0.00,VWS V14.01,2013-10-03 21:01:00,
2013-10-03 17:06:00,73.6,64.4,27.58,SE,145,0.0,0.0,73,0.00,,---,0.00,VWS V14.01,2013-10-03 21:06:00,
2013-10-03 17:11:00,73.4,64.6,27.58,SE,143,0.0,0.0,74,0.00,,---,0.00,VWS V14.01,2013-10-03 21:11:00,
2013-10-03 17:16:00,73.2,64.1,27.58,SW,217,2.7,2.7,73,0.00,,---,0.00,VWS V14.01,2013-10-03 21:16:00,
2013-10-03 17:21:00,72.9,64.1,27.58,SW,220,2.2,2.2,74,0.00,,---,0.00,VWS V14.01,2013-10-03 21:21:00,
2013-10-03 17:26:00,72.7,64.7,27.58,SW,215,2.7,3.1,76,0.00,,---,0.00,VWS V14.01,2013-10-03 21:26:00,
2013-10-03 17:31:00,72.3,64.3,27.58,SW,223,4.0,4.0,76,0.00,,---,0.00,VWS V14.01,2013-10-03 21:31:00,
2013-10-03 17:36:00,72.0,63.6,27.58,SW,216,4.5,4.5,75,0.00,,---,0.00,VWS V14.01,2013-10-03 21:36:00,
2013-10-03 17:41:00,71.6,63.6,27.58,SW,224,0.0,0.0,76,0.00,,---,0.00,VWS V14.01,2013-10-03 21:41:00,
2013-10-03 17:46:00,71.4,63.8,27.58,SW,225,3.6,3.6,77,0.00,,---,0.00,VWS V14.01,2013-10-03 21:46:00,
2013-10-03 17:51:00,71.1,63.5,27.58,SW,225,0.0,0.0,77,0.00,,---,0.00,VWS V14.01,2013-10-03 21:51:00,
2013-10-03 17:56:00,70.9,63.3,27.58,SW,225,0.0,2.2,77,0.00,,---,0.00,VWS V14.01,2013-10-03 21:56:00,
2013-10-03 18:01:00,70.7,63.5,27.58,SW,225,2.2,2.7,78,0.00,,---,0.00,VWS V14.01,2013-10-03 22:01:00,
2013-10-03 18:06:00,70.5,62.2,27.58,SE,140,0.0,0.0,75,0.00,,---,0.00,VWS V14.01,2013-10-03 22:06:00,
2013-10-03 18:11:00,70.0,62.1,27.58,WNW,287,0.0,0.0,76,0.00,,---,0.00,VWS V14.01,2013-10-03 22:11:00,
2013-10-03 18:16:00,69.6,62.5,27.58,WSW,258,3.1,3.1,78,0.00,,---,0.00,VWS V14.01,2013-10-03 22:16:00,
2013-10-03 18:21:00,69.1,62.3,27.58,WSW,257,2.2,2.7,79,0.00,,---,0.00,VWS V14.01,2013-10-03 22:21:00,
2013-10-03 18:26:00,68.7,62.0,27.58,WSW,257,2.2,2.2,79,0.00,,---,0.00,VWS V14.01,2013-10-03 22:26:00,
2013-10-03 18:31:00,68.4,62.0,27.58,WSW,257,0.0,0.0,80,0.00,,---,0.00,VWS V14.01,2013-10-03 22:31:00,
2013-10-03 18:36:00,68.0,62.0,27.58,WSW,257,0.0,0.0,81,0.00,,---,0.00,VWS V14.01,2013-10-03 22:36:00,
2013-10-03 18:41:00,67.8,62.1,27.58,WSW,257,0.0,0.0,82,0.00,,---,0.00,VWS V14.01,2013-10-03 22:41:00,
2013-10-03 18:46:00,67.6,62.0,27.58,SSE,168,0.0,0.0,82,0.00,,---,0.00,VWS V14.01,2013-10-03 22:46:00,
2013-10-03 18:51:00,67.5,62.1,27.58,SE,141,3.6,4.5,83,0.00,,---,0.00,VWS V14.01,2013-10-03 22:51:00,
2013-10-03 18:56:00,67.5,62.1,27.58,SW,214,0.0,0.0,83,0.00,,---,0.00,VWS V14.01,2013-10-03 22:56:00,
2013-10-03 19:01:00,67.1,62.1,27.58,East,84,0.0,0.0,84,0.00,,---,0.00,VWS V14.01,2013-10-03 23:01:00,
2013-10-03 19:06:00,66.9,62.3,27.58,SSW,211,0.0,2.2,85,0.00,,---,0.00,VWS V14.01,2013-10-03 23:06:00,
2013-10-03 19:11:00,66.9,62.6,27.58,SW,225,0.0,2.2,86,0.00,,---,0.00,VWS V14.01,2013-10-03 23:11:00,
2013-10-03 19:16:00,66.9,62.3,27.58,NNE,25,0.0,0.0,85,0.00,,---,0.00,VWS V14.01,2013-10-03 23:16:00,
2013-10-03 19:21:00,66.9,62.6,27.58,SE,124,0.0,2.7,86,0.00,,---,0.00,VWS V14.01,2013-10-03 23:21:00,
2013-10-03 19:26:00,66.7,62.4,27.58,WSW,238,0.0,0.0,86,0.00,,---,0.00,VWS V14.01,2013-10-03 23:26:00,
2013-10-03 19:31:00,66.7,62.4,27.58,SSE,159,0.0,2.2,86,0.00,,---,0.00,VWS V14.01,2013-10-03 23:31:00,
2013-10-03 19:36:00,66.7,62.8,27.58,SSE,158,0.0,0.0,87,0.00,,---,0.00,VWS V14.01,2013-10-03 23:36:00,
2013-10-03 19:41:00,66.7,62.8,27.58,SSE,158,0.0,0.0,87,0.00,,---,0.00,VWS V14.01,2013-10-03 23:41:00,
2013-10-03 19:46:00,66.6,62.9,27.58,SSE,159,2.2,3.1,88,0.00,,---,0.00,VWS V14.01,2013-10-03 23:46:00,
2013-10-03 19:51:00,66.7,63.1,27.58,SSE,159,0.0,0.0,88,0.00,,---,0.00,VWS V14.01,2013-10-03 23:51:00,
2013-10-03 19:56:00,66.6,62.9,27.58,SSE,159,0.0,2.2,88,0.00,,---,0.00,VWS V14.01,2013-10-03 23:56:00,
2013-10-03 20:01:00,66.7,62.8,27.58,SSW,202,2.7,2.7,87,0.00,,---,0.00,VWS V14.01,2013-10-04 00:01:00,
2013-10-03 20:06:00,66.7,62.8,27.58,North,10,0.0,0.0,87,0.00,,---,0.00,VWS V14.01,2013-10-04 00:06:00,
2013-10-03 20:11:00,66.7,62.8,27.58,WSW,247,2.2,2.2,87,0.00,,---,0.00,VWS V14.01,2013-10-04 00:11:00,
2013-10-03 20:16:00,66.9,62.6,27.58,WSW,246,2.7,2.7,86,0.00,,---,0.00,VWS V14.01,2013-10-04 00:16:00,
2013-10-03 20:21:00,66.9,62.3,27.58,West,273,0.0,0.0,85,0.00,,---,0.00,VWS V14.01,2013-10-04 00:21:00,
2013-10-03 20:26:00,67.1,61.8,27.58,SE,128,0.0,3.6,83,0.00,,---,0.00,VWS V14.01,2013-10-04 00:26:00,
2013-10-03 20:31:00,67.1,61.8,27.58,ESE,119,0.0,0.0,83,0.00,,---,0.00,VWS V14.01,2013-10-04 00:31:00,
2013-10-03 20:36:00,67.1,61.8,27.58,ESE,119,0.0,2.7,83,0.00,,---,0.00,VWS V14.01,2013-10-04 00:36:00,
2013-10-03 20:41:00,67.1,62.1,27.58,ESE,119,0.0,0.0,84,0.00,,---,0.00,VWS V14.01,2013-10-04 00:41:00,
2013-10-03 20:46:00,67.1,61.8,27.58,South,188,3.1,3.1,83,0.00,,---,0.00,VWS V14.01,2013-10-04 00:46:00,
2013-10-03 20:51:00,67.1,61.8,27.58,South,173,4.0,4.0,83,0.00,,---,0.00,VWS V14.01,2013-10-04 00:51:00,
2013-10-03 20:56:00,67.1,62.1,27.58,South,184,0.0,0.0,84,0.00,,---,0.00,VWS V14.01,2013-10-04 00:56:00,
2013-10-03 21:01:00,66.9,62.3,27.58,South,184,0.0,0.0,85,0.00,,---,0.00,VWS V14.01,2013-10-04 01:01:00,
2013-10-03 21:06:00,66.9,62.3,27.58,South,179,3.1,3.1,85,0.00,,---,0.00,VWS V14.01,2013-10-04 01:06:00,
2013-10-03 21:11:00,66.9,62.3,27.58,South,179,0.0,0.0,85,0.00,,---,0.00,VWS V14.01,2013-10-04 01:11:00,
2013-10-03 21:16:00,66.7,62.1,27.58,South,179,0.0,0.0,85,0.00,,---,0.00,VWS V14.01,2013-10-04 01:16:00,
2013-10-03 21:21:00,66.7,62.4,27.58,South,179,0.0,0.0,86,0.00,,---,0.00,VWS V14.01,2013-10-04 01:21:00,
2013-10-03 21:26:00,66.6,62.2,27.58,South,179,0.0,0.0,86,0.00,,---,0.00,VWS V14.01,2013-10-04 01:26:00,
2013-10-03 21:31:00,66.6,62.2,27.58,South,179,0.0,0.0,86,0.00,,---,0.00,VWS V14.01,2013-10-04 01:31:00,
2013-10-03 21:36:00,66.4,62.4,27.58,South,179,0.0,0.0,87,0.00,,---,0.00,VWS V14.01,2013-10-04 01:36:00,
2013-10-03 21:41:00,66.2,62.5,27.58,South,179,0.0,0.0,88,0.00,,---,0.00,VWS V14.01,2013-10-04 01:41:00,
2013-10-03 21:46:00,65.8,62.5,27.58,South,179,0.0,0.0,89,0.00,,---,0.00,VWS V14.01,2013-10-04 01:46:00,
2013-10-03 21:51:00,65.7,62.3,27.58,South,179,0.0,0.0,89,0.00,,---,0.00,VWS V14.01,2013-10-04 01:51:00,
2013-10-03 21:56:00,65.3,62.3,27.58,South,179,0.0,0.0,90,0.00,,---,0.00,VWS V14.01,2013-10-04 01:56:00,
2013-10-03 22:01:00,64.9,62.2,27.61,South,179,0.0,0.0,91,0.00,,---,0.00,VWS V14.01,2013-10-04 02:01:00,
2013-10-03 22:06:00,64.8,62.4,27.61,South,179,0.0,0.0,92,0.00,,---,0.00,VWS V14.01,2013-10-04 02:06:00,
2013-10-03 22:11:00,64.8,62.4,27.61,South,179,0.0,0.0,92,0.00,,---,0.00,VWS V14.01,2013-10-04 02:11:00,
2013-10-03 22:16:00,64.8,62.7,27.61,South,179,0.0,0.0,93,0.00,,---,0.00,VWS V14.01,2013-10-04 02:16:00,
2013-10-03 22:21:00,64.8,62.7,27.61,South,179,0.0,0.0,93,0.00,,---,0.00,VWS V14.01,2013-10-04 02:21:00,
2013-10-03 22:26:00,64.8,62.7,27.61,South,179,0.0,0.0,93,0.00,,---,0.00,VWS V14.01,2013-10-04 02:26:00,
2013-10-03 22:31:00,64.6,62.8,27.61,South,179,0.0,0.0,94,0.00,,---,0.00,VWS V14.01,2013-10-04 02:31:00,
2013-10-03 22:36:00,64.4,62.6,27.61,South,179,0.0,0.0,94,0.00,,---,0.00,VWS V14.01,2013-10-04 02:36:00,
2013-10-03 22:41:00,64.4,62.9,27.61,South,179,0.0,0.0,95,0.00,,---,0.00,VWS V14.01,2013-10-04 02:41:00,
2013-10-03 22:46:00,64.2,63.1,27.61,South,179,0.0,0.0,96,0.00,,---,0.00,VWS V14.01,2013-10-04 02:46:00,
2013-10-03 22:51:00,64.0,62.9,27.61,South,179,0.0,0.0,96,0.00,,---,0.00,VWS V14.01,2013-10-04 02:51:00,
2013-10-03 22:56:00,63.9,62.7,27.61,South,179,0.0,0.0,96,0.00,,---,0.00,VWS V14.01,2013-10-04 02:56:00,
2013-10-03 23:01:00,63.7,62.8,27.61,South,179,0.0,0.0,97,0.00,,---,0.00,VWS V14.01,2013-10-04 03:01:00,
2013-10-03 23:06:00,63.5,62.6,27.61,South,179,0.0,0.0,97,0.00,,---,0.00,VWS V14.01,2013-10-04 03:06:00,
2013-10-03 23:11:00,63.1,62.6,27.61,South,179,0.0,0.0,98,0.00,,---,0.00,VWS V14.01,2013-10-04 03:11:00,
2013-10-03 23:16:00,63.0,62.4,27.61,South,179,0.0,0.0,98,0.00,,---,0.00,VWS V14.01,2013-10-04 03:16:00,
2013-10-03 23:21:00,62.8,62.2,27.61,South,179,0.0,0.0,98,0.00,,---,0.00,VWS V14.01,2013-10-04 03:21:00,
2013-10-03 23:26:00,62.6,62.0,27.61,South,179,0.0,0.0,98,0.00,,---,0.00,VWS V14.01,2013-10-04 03:26:00,
2013-10-03 23:31:00,62.4,61.8,27.61,South,179,0.0,0.0,98,0.00,,---,0.00,VWS V14.01,2013-10-04 03:31:00,
2013-10-03 23:36:00,62.1,61.5,27.61,South,179,0.0,0.0,98,0.00,,---,0.00,VWS V14.01,2013-10-04 03:36:00,
2013-10-03 23:41:00,61.9,61.3,27.61,South,179,0.0,0.0,98,0.00,,---,0.00,VWS V14.01,2013-10-04 03:41:00,
2013-10-03 23:46:00,61.7,61.1,27.61,South,179,0.0,0.0,98,0.00,,---,0.00,VWS V14.01,2013-10-04 03:46:00,
2013-10-03 23:51:00,61.5,61.0,27.61,South,179,0.0,0.0,98,0.00,,---,0.00,VWS V14.01,2013-10-04 03:51:00,
2013-10-03 23:56:00,61.3,60.8,27.61,South,179,0.0,0.0,98,0.00,,---,0.00,VWS V14.01,2013-10-04 03:56:00,